This is the latest recevied weather packets stored in our database for station/object F4FEB-14. If no packets are shown the sender has not sent any weather packets the latest 10 day(s).
| Time | Temp. | Humidity | Pressure | Rain* | Wind** | Luminosity | Snow |
|---|---|---|---|---|---|---|---|
| 1777563006 | 23.33° C | 41% | 1019.8 hPa | 0 mm | - | - | - |
| 1777562705 | 23.89° C | 40% | 1019.7 hPa | 0 mm | - | - | - |
| 1777562403 | 23.33° C | 41% | 1019.7 hPa | 0 mm | - | - | - |
| 1777561801 | 22.78° C | 42% | 1019.7 hPa | 0 mm | - | - | - |
| 1777561500 | 22.78° C | 42% | 1019.7 hPa | 0 mm | - | - | - |
| 1777561198 | 23.33° C | 43% | 1019.6 hPa | 0 mm | - | - | - |
| 1777560595 | 23.33° C | 42% | 1019.7 hPa | 0 mm | - | - | - |
| 1777560293 | 22.78° C | 44% | 1019.7 hPa | 0 mm | - | - | - |
| 1777559992 | 23.33° C | 44% | 1019.7 hPa | 0 mm | - | - | - |
| 1777559692 | 23.33° C | 44% | 1019.7 hPa | 0 mm | - | - | - |
| 1777559390 | 22.78° C | 43% | 1019.8 hPa | 0 mm | - | - | - |
| 1777559088 | 23.33° C | 46% | 1019.9 hPa | 0 mm | - | - | - |
| 1777558786 | 23.33° C | 45% | 1019.8 hPa | 0 mm | - | - | - |
| 1777558486 | 24.44° C | 42% | 1019.9 hPa | 0 mm | - | - | - |
| 1777558185 | 23.89° C | 44% | 1019.8 hPa | 0 mm | - | - | - |
| 1777557883 | 23.33° C | 45% | 1019.9 hPa | 0 mm | - | - | - |
| 1777557582 | 23.33° C | 47% | 1019.9 hPa | 0 mm | - | - | - |
| 1777557281 | 23.33° C | 44% | 1020 hPa | 0 mm | - | - | - |
| 1777556980 | 24.44° C | 45% | 1019.8 hPa | 0 mm | - | - | - |
| 1777556679 | 23.33° C | 46% | 1019.9 hPa | 0 mm | - | - | - |
| 1777556378 | 22.78° C | 47% | 1020 hPa | 0 mm | - | - | - |
| 1777556077 | 22.78° C | 47% | 1020.1 hPa | 0 mm | - | - | - |
| 1777555775 | 23.33° C | 47% | 1020 hPa | 0 mm | - | - | - |
| 1777555473 | 23.33° C | 46% | 1020.1 hPa | 0 mm | - | - | - |
| 1777555171 | 23.33° C | 47% | 1020.1 hPa | 0 mm | - | - | - |
* Rain latest hour (hover to see other rain measurements)
** Current wind speed in m/s (hover to see current wind gust speed)